| time (UTC) | temp F | wind direction | speed MPH | gust MPH | rain 1hr in | rain 24hr in | rain mn in | humidity % | barometer mb |
| 20260904040110 | 63 | 223 | 3.0 | 8.0 | 0.00 | 0.02 | 0.00 | 89 | 1012.3 |
| 20260904035557 | 63 | 228 | 4.0 | 9.0 | 0.00 | 0.02 | 0.00 | 90 | 1012.5 |
| 20260904035058 | 63 | 203 | 5.0 | 9.0 | 0.00 | 0.02 | 0.00 | 90 | 1012.6 |
| 20260904034615 | 63 | 209 | 4.0 | 8.0 | 0.00 | 0.02 | 0.00 | 90 | 1012.6 |
| 20260904034057 | 63 | 222 | 3.0 | 8.0 | 0.00 | 0.02 | 0.00 | 90 | 1012.7 |
| 20260904033558 | 63 | 217 | 3.0 | 8.0 | 0.00 | 0.02 | 0.00 | 90 | 1012.8 |
| 20260904033100 | 62 | 225 | 3.0 | 9.0 | 0.00 | 0.02 | 0.00 | 90 | 1012.9 |
| 20260904032557 | 62 | 227 | 4.0 | 9.0 | 0.00 | 0.02 | 0.00 | 90 | 1013.0 |
| 20260904032057 | 62 | 221 | 3.0 | 8.0 | 0.00 | 0.02 | 0.00 | 90 | 1013.1 |
| 20260904031606 | 62 | 244 | 3.0 | 8.0 | 0.00 | 0.02 | 0.00 | 90 | 1013.1 |
| 20260904031057 | 62 | 221 | 4.0 | 8.0 | 0.00 | 0.02 | 0.00 | 90 | 1013.2 |
| 20260904030601 | 62 | 225 | 4.0 | 9.0 | 0.00 | 0.02 | 0.00 | 90 | 1013.2 |
| 20260904030106 | 62 | 225 | 3.0 | 9.0 | 0.00 | 0.02 | 0.00 | 91 | 1013.2 |
| 20260904025559 | 62 | 209 | 5.0 | 9.0 | 0.00 | 0.02 | 0.00 | 91 | 1013.3 |
| 20260904025057 | 62 | 221 | 3.0 | 8.0 | 0.00 | 0.02 | 0.00 | 90 | 1013.5 |
| 20260904024602 | 61 | 240 | 2.0 | 7.0 | 0.00 | 0.02 | 0.00 | 90 | 1013.5 |
| 20260904024058 | 61 | 215 | 3.0 | 7.0 | 0.00 | 0.02 | 0.00 | 90 | 1013.5 |
| 20260904023557 | 61 | 217 | 3.0 | 7.0 | 0.00 | 0.02 | 0.00 | 90 | 1013.6 |
| 20260904023107 | 61 | 194 | 2.0 | 7.0 | 0.00 | 0.02 | 0.00 | 90 | 1013.5 |
| 20260904022558 | 61 | 215 | 3.0 | 7.0 | 0.00 | 0.02 | 0.00 | 90 | 1013.7 |
| 20260904022058 | 61 | 214 | 3.0 | 5.0 | 0.00 | 0.02 | 0.00 | 90 | 1013.7 |
| 20260904021608 | 61 | 221 | 3.0 | 7.0 | 0.00 | 0.02 | 0.00 | 90 | 1013.9 |
| 20260904021057 | 61 | 202 | 3.0 | 7.0 | 0.00 | 0.02 | 0.00 | 90 | 1013.8 |
| 20260904020557 | 61 | 217 | 1.0 | 5.0 | 0.00 | 0.02 | 0.00 | 90 | 1013.9 |
| 20260904020107 | 61 | 214 | 2.0 | 5.0 | 0.00 | 0.02 | 0.00 | 89 | 1013.8 |
| 20260904015559 | 61 | 215 | 1.0 | 4.0 | 0.00 | 0.02 | 0.00 | 89 | 1013.9 |
| 20260904015057 | 61 | 216 | 2.0 | 5.0 | 0.00 | 0.02 | 0.00 | 89 | 1014.1 |
| 20260904014604 | 61 | 219 | 2.0 | 5.0 | 0.00 | 0.02 | 0.00 | 89 | 1014.0 |
| 20260904014057 | 61 | 218 | 1.0 | 5.0 | 0.00 | 0.02 | 0.00 | 89 | 1014.0 |
| 20260904013556 | 61 | 221 | 2.0 | 5.0 | 0.00 | 0.02 | 0.00 | 89 | 1014.0 |
| 20260904013105 | 62 | 225 | 1.0 | 6.0 | 0.00 | 0.02 | 0.00 | 89 | 1014.0 |
| 20260904012558 | 62 | 227 | 2.0 | 6.0 | 0.00 | 0.02 | 0.00 | 89 | 1014.1 |
| 20260904012059 | 62 | 228 | 2.0 | 7.0 | 0.00 | 0.02 | 0.00 | 89 | 1014.1 |
| 20260904011559 | 62 | 226 | 2.0 | 7.0 | 0.00 | 0.02 | 0.00 | 89 | 1014.1 |
| 20260904011056 | 62 | 241 | 3.0 | 8.0 | 0.00 | 0.02 | 0.00 | 89 | 1014.2 |
| 20260904010557 | 61 | 240 | 3.0 | 8.0 | 0.00 | 0.02 | 0.00 | 89 | 1014.4 |
| 20260904010106 | 61 | 252 | 3.0 | 7.0 | 0.00 | 0.02 | 0.00 | 89 | 1014.5 |
| 20260904005558 | 62 | 236 | 3.0 | 8.0 | 0.00 | 0.02 | 0.00 | 89 | 1014.5 |
| 20260904005100 | 62 | 240 | 3.0 | 8.0 | 0.00 | 0.02 | 0.00 | 89 | 1014.5 |
| 20260904004610 | 62 | 240 | 3.0 | 8.0 | 0.00 | 0.02 | 0.00 | 89 | 1014.5 |
| 20260904004057 | 62 | 234 | 2.0 | 5.0 | 0.00 | 0.02 | 0.00 | 89 | 1014.5 |
| 20260904003557 | 62 | 234 | 2.0 | 5.0 | 0.00 | 0.02 | 0.00 | 89 | 1014.6 |
| 20260904003100 | 62 | 232 | 2.0 | 6.0 | 0.00 | 0.02 | 0.00 | 89 | 1014.7 |
| 20260904002557 | 62 | 232 | 3.0 | 6.0 | 0.00 | 0.02 | 0.00 | 89 | 1014.7 |
| 20260904002100 | 62 | 227 | 3.0 | 6.0 | 0.00 | 0.02 | 0.00 | 89 | 1014.7 |
| 20260904001605 | 62 | 227 | 3.0 | 7.0 | 0.00 | 0.02 | 0.00 | 89 | 1014.7 |
| 20260904001057 | 62 | 226 | 3.0 | 7.0 | 0.00 | 0.02 | 0.00 | 89 | 1014.8 |
| 20260904000558 | 62 | 231 | 4.0 | 8.0 | 0.00 | 0.02 | 0.00 | 89 | 1014.9 |
| 20260904000136 | 62 | 223 | 3.0 | 9.0 | 0.00 | 0.02 | 0.00 | 89 | 1014.9 |
| 20260903235559 | 62 | 232 | 4.0 | 9.0 | 0.00 | 0.02 | 0.00 | 89 | 1015.0 |
| 20260903235101 | 62 | 236 | 3.0 | 7.0 | 0.00 | 0.02 | 0.00 | 89 | 1015.1 |
| 20260903234604 | 62 | 232 | 3.0 | 7.0 | 0.00 | 0.02 | 0.00 | 89 | 1015.1 |
| 20260903234057 | 62 | 242 | 3.0 | 7.0 | 0.00 | 0.02 | 0.00 | 89 | 1015.1 |
| 20260903233557 | 62 | 245 | 3.0 | 7.0 | 0.00 | 0.02 | 0.00 | 90 | 1015.1 |
| 20260903233112 | 62 | 244 | 3.0 | 6.0 | 0.00 | 0.02 | 0.00 | 90 | 1015.2 |
| 20260903232556 | 62 | 227 | 3.0 | 6.0 | 0.00 | 0.02 | 0.00 | 90 | 1015.0 |
| 20260903232057 | 62 | 227 | 2.0 | 8.0 | 0.00 | 0.02 | 0.00 | 90 | 1015.1 |
| 20260903231610 | 62 | 227 | 3.0 | 8.0 | 0.00 | 0.02 | 0.00 | 90 | 1015.1 |
| 20260903231057 | 63 | 220 | 3.0 | 8.0 | 0.00 | 0.02 | 0.00 | 91 | 1015.1 |
| 20260903230558 | 63 | 238 | 3.0 | 7.0 | 0.00 | 0.02 | 0.00 | 91 | 1015.2 |
| 20260903230114 | 63 | 242 | 3.0 | 7.0 | 0.00 | 0.02 | 0.00 | 91 | 1015.5 |
| 20260903225557 | 63 | 238 | 3.0 | 7.0 | 0.00 | 0.02 | 0.00 | 91 | 1015.4 |
| 20260903225057 | 63 | 236 | 2.0 | 5.0 | 0.00 | 0.02 | 0.00 | 91 | 1015.4 |
| 20260903224610 | 63 | 244 | 2.0 | 5.0 | 0.00 | 0.02 | 0.00 | 91 | 1015.3 |
| 20260903224057 | 63 | 250 | 2.0 | 3.0 | 0.00 | 0.02 | 0.00 | 92 | 1015.3 |
| 20260903223558 | 63 | 250 | 1.0 | 4.0 | 0.00 | 0.02 | 0.00 | 92 | 1015.4 |
| 20260903223059 | 63 | 250 | 2.0 | 4.0 | 0.00 | 0.02 | 0.00 | 91 | 1015.5 |
| 20260903222557 | 64 | 250 | 2.0 | 4.0 | 0.00 | 0.02 | 0.00 | 91 | 1015.5 |
| 20260903222059 | 64 | 251 | 2.0 | 4.0 | 0.00 | 0.02 | 0.00 | 92 | 1015.5 |
| 20260903221605 | 63 | 252 | 2.0 | 4.0 | 0.00 | 0.02 | 0.00 | 92 | 1015.5 |
| 20260903221056 | 64 | 254 | 0.0 | 2.0 | 0.00 | 0.02 | 0.00 | 92 | 1015.6 |
| 20260903220556 | 64 | 258 | 1.0 | 4.0 | 0.02 | 0.02 | 0.00 | 92 | 1015.7 |
| 20260903220121 | 64 | 0 | 1.0 | 4.0 | 0.02 | 0.02 | 0.00 | 91 | 1015.6 |
| 20260903215559 | 64 | 258 | 2.0 | 4.0 | 0.02 | 0.02 | 0.02 | 91 | 1015.6 |
| 20260903215058 | 64 | 267 | 2.0 | 7.0 | 0.02 | 0.02 | 0.02 | 90 | 1015.5 |
| 20260903214604 | 64 | 267 | 1.0 | 7.0 | 0.02 | 0.02 | 0.02 | 90 | 1015.3 |
| 20260903214057 | 64 | 267 | 3.0 | 7.0 | 0.02 | 0.02 | 0.02 | 90 | 1015.5 |
| 20260903213601 | 64 | 238 | 3.0 | 9.0 | 0.02 | 0.02 | 0.02 | 89 | 1015.5 |
| 20260903213101 | 64 | 263 | 4.0 | 9.0 | 0.02 | 0.02 | 0.02 | 89 | 1015.5 |
| 20260903212557 | 64 | 267 | 5.0 | 10.0 | 0.02 | 0.02 | 0.02 | 89 | 1015.6 |
| 20260903212058 | 65 | 269 | 5.0 | 15.0 | 0.02 | 0.02 | 0.02 | 88 | 1015.7 |
| 20260903211621 | 65 | 269 | 7.0 | 15.0 | 0.02 | 0.02 | 0.02 | 88 | 1015.7 |
| 20260903211100 | 65 | 264 | 3.0 | 9.0 | 0.02 | 0.02 | 0.02 | 88 | 1015.6 |
| 20260903210557 | 65 | 273 | 2.0 | 6.0 | 0.00 | 0.00 | 0.00 | 86 | 1015.6 |
| 20260903210113 | 65 | 273 | 2.0 | 7.0 | 0.00 | 0.00 | 0.00 | 86 | 1015.4 |
| 20260903205556 | 65 | 272 | 2.0 | 7.0 | 0.00 | 0.00 | 0.00 | 86 | 1015.3 |
| 20260903205056 | 65 | 275 | 2.0 | 7.0 | 0.00 | 0.00 | 0.00 | 85 | 1015.4 |
| 20260903204604 | 66 | 274 | 1.0 | 6.0 | 0.00 | 0.00 | 0.00 | 84 | 1015.3 |
| 20260903204057 | 66 | 286 | 2.0 | 8.0 | 0.00 | 0.00 | 0.00 | 84 | 1015.4 |
| 20260903203556 | 66 | 280 | 3.0 | 9.0 | 0.00 | 0.00 | 0.00 | 84 | 1015.4 |
| 20260903203100 | 66 | 252 | 3.0 | 10.0 | 0.00 | 0.00 | 0.00 | 83 | 1015.2 |
| 20260903202558 | 66 | 246 | 6.0 | 10.0 | 0.00 | 0.00 | 0.00 | 84 | 1015.4 |
| 20260903202057 | 66 | 238 | 5.0 | 11.0 | 0.00 | 0.00 | 0.00 | 84 | 1015.3 |
| 20260903201605 | 65 | 251 | 5.0 | 12.0 | 0.00 | 0.00 | 0.00 | 84 | 1015.3 |
| 20260903201057 | 66 | 259 | 5.0 | 12.0 | 0.00 | 0.00 | 0.00 | 84 | 1015.2 |
| 20260903200557 | 66 | 215 | 5.0 | 12.0 | 0.00 | 0.00 | 0.00 | 84 | 1015.2 |
| 20260903200101 | 66 | 232 | 6.0 | 11.0 | 0.00 | 0.00 | 0.00 | 84 | 1015.3 |
| 20260903195600 | 66 | 257 | 5.0 | 12.0 | 0.00 | 0.00 | 0.00 | 83 | 1015.2 |
| 20260903195056 | 66 | 225 | 4.0 | 12.0 | 0.00 | 0.00 | 0.00 | 84 | 1015.3 |
| 20260903194559 | 66 | 237 | 6.0 | 15.0 | 0.00 | 0.00 | 0.00 | 83 | 1015.4 |
| 20260903194057 | 66 | 234 | 7.0 | 15.0 | 0.00 | 0.00 | 0.00 | 83 | 1015.3 |
| 20260903193600 | 66 | 248 | 4.0 | 12.0 | 0.00 | 0.00 | 0.00 | 83 | 1015.5 |
| 20260903193103 | 66 | 250 | 5.0 | 12.0 | 0.00 | 0.00 | 0.00 | 83 | 1015.5 |
| 20260903192557 | 66 | 261 | 5.0 | 12.0 | 0.00 | 0.00 | 0.00 | 83 | 1015.6 |
| 20260903192057 | 66 | 268 | 4.0 | 12.0 | 0.00 | 0.00 | 0.00 | 82 | 1015.5 |
| 20260903191600 | 67 | 270 | 6.0 | 11.0 | 0.00 | 0.00 | 0.00 | 82 | 1015.4 |
| 20260903191057 | 67 | 244 | 6.0 | 11.0 | 0.00 | 0.00 | 0.00 | 81 | 1015.5 |
| 20260903190557 | 67 | 240 | 3.0 | 11.0 | 0.00 | 0.00 | 0.00 | 81 | 1015.5 |
| 20260903190059 | 67 | 238 | 6.0 | 14.0 | 0.00 | 0.00 | 0.00 | 81 | 1015.6 |
| 20260903185556 | 67 | 257 | 6.0 | 14.0 | 0.00 | 0.00 | 0.00 | 81 | 1015.5 |
| 20260903185056 | 67 | 247 | 6.0 | 12.0 | 0.00 | 0.00 | 0.00 | 81 | 1015.5 |
| 20260903184608 | 67 | 243 | 6.0 | 13.0 | 0.00 | 0.00 | 0.00 | 81 | 1015.5 |
| 20260903184056 | 67 | 250 | 5.0 | 13.0 | 0.00 | 0.00 | 0.00 | 81 | 1015.5 |
| 20260903183556 | 66 | 240 | 7.0 | 14.0 | 0.00 | 0.00 | 0.00 | 81 | 1015.4 |
| 20260903183106 | 66 | 230 | 6.0 | 14.0 | 0.00 | 0.00 | 0.00 | 81 | 1015.5 |
| 20260903182557 | 66 | 246 | 7.0 | 14.0 | 0.00 | 0.00 | 0.00 | 80 | 1015.3 |
| 20260903182056 | 66 | 219 | 6.0 | 14.0 | 0.00 | 0.00 | 0.00 | 80 | 1015.4 |
| 20260903181601 | 66 | 243 | 5.0 | 14.0 | 0.00 | 0.00 | 0.00 | 80 | 1015.3 |
| 20260903181057 | 66 | 246 | 7.0 | 14.0 | 0.00 | 0.00 | 0.00 | 80 | 1015.2 |
| 20260903180557 | 66 | 246 | 6.0 | 12.0 | 0.00 | 0.00 | 0.00 | 81 | 1015.1 |
| 20260903180112 | 66 | 242 | 5.0 | 12.0 | 0.00 | 0.00 | 0.00 | 80 | 1015.2 |
| 20260903175556 | 66 | 227 | 4.0 | 14.0 | 0.00 | 0.00 | 0.00 | 80 | 1015.2 |
| 20260903175056 | 67 | 242 | 5.0 | 14.0 | 0.00 | 0.00 | 0.00 | 80 | 1015.1 |
| 20260903174611 | 67 | 260 | 7.0 | 14.0 | 0.00 | 0.00 | 0.00 | 79 | 1015.0 |
| 20260903174059 | 67 | 232 | 5.0 | 14.0 | 0.00 | 0.00 | 0.00 | 79 | 1015.0 |
| 20260903173556 | 67 | 244 | 7.0 | 14.0 | 0.00 | 0.00 | 0.00 | 79 | 1015.1 |
| 20260903173120 | 67 | 242 | 6.0 | 13.0 | 0.00 | 0.00 | 0.00 | 79 | 1015.2 |
| 20260903172557 | 67 | 252 | 6.0 | 12.0 | 0.00 | 0.00 | 0.00 | 79 | 1015.2 |
| 20260903172056 | 67 | 220 | 6.0 | 14.0 | 0.00 | 0.00 | 0.00 | 78 | 1015.1 |
| 20260903171604 | 68 | 244 | 8.0 | 16.0 | 0.00 | 0.00 | 0.00 | 77 | 1015.1 |
| 20260903171058 | 68 | 222 | 8.0 | 16.0 | 0.00 | 0.00 | 0.00 | 77 | 1015.2 |
| 20260903170558 | 68 | 229 | 6.0 | 19.0 | 0.00 | 0.00 | 0.00 | 76 | 1015.1 |
| 20260903170112 | 68 | 252 | 10.0 | 19.0 | 0.00 | 0.00 | 0.00 | 76 | 1015.2 |
| 20260903165556 | 68 | 238 | 7.0 | 19.0 | 0.00 | 0.00 | 0.00 | 76 | 1015.1 |
| 20260903165056 | 68 | 263 | 7.0 | 20.0 | 0.00 | 0.00 | 0.00 | 76 | 1015.0 |
| 20260903164605 | 68 | 244 | 10.0 | 20.0 | 0.00 | 0.00 | 0.00 | 76 | 1015.1 |
| 20260903164056 | 68 | 230 | 10.0 | 17.0 | 0.00 | 0.00 | 0.00 | 76 | 1014.9 |
| 20260903163556 | 68 | 262 | 6.0 | 19.0 | 0.00 | 0.00 | 0.00 | 76 | 1015.1 |
| 20260903163114 | 68 | 230 | 10.0 | 19.0 | 0.00 | 0.00 | 0.00 | 76 | 1015.0 |
| 20260903162556 | 68 | 257 | 11.0 | 18.0 | 0.00 | 0.00 | 0.00 | 75 | 1015.0 |
| 20260903162055 | 69 | 248 | 11.0 | 19.0 | 0.00 | 0.00 | 0.00 | 75 | 1015.1 |
| 20260903161600 | 69 | 221 | 8.0 | 19.0 | 0.00 | 0.00 | 0.00 | 75 | 1015.0 |
| 20260903161056 | 69 | 230 | 10.0 | 19.0 | 0.00 | 0.00 | 0.00 | 74 | 1015.0 |
| 20260903160557 | 69 | 238 | 8.0 | 18.0 | 0.00 | 0.00 | 0.00 | 75 | 1015.1 |
| 20260903155557 | 69 | 254 | 7.0 | 20.0 | 0.00 | 0.00 | 0.00 | 75 | 1015.0 |
| 20260903155057 | 69 | 257 | 12.0 | 20.0 | 0.00 | 0.00 | 0.00 | 75 | 1015.1 |
| 20260903154607 | 69 | 257 | 9.0 | 18.0 | 0.00 | 0.00 | 0.00 | 74 | 1015.1 |
| 20260903154056 | 69 | 237 | 9.0 | 18.0 | 0.00 | 0.00 | 0.00 | 75 | 1015.1 |
| 20260903153556 | 69 | 275 | 9.0 | 19.0 | 0.00 | 0.00 | 0.00 | 74 | 1015.0 |
| 20260903153105 | 69 | 263 | 7.0 | 23.0 | 0.00 | 0.00 | 0.00 | 75 | 1014.9 |
| 20260903152558 | 69 | 240 | 12.0 | 23.0 | 0.00 | 0.00 | 0.00 | 74 | 1015.0 |
| 20260903152056 | 70 | 231 | 9.0 | 19.0 | 0.00 | 0.00 | 0.00 | 74 | 1015.0 |
| 20260903151602 | 70 | 253 | 12.0 | 19.0 | 0.00 | 0.00 | 0.00 | 72 | 1015.1 |
| 20260903151056 | 70 | 229 | 9.0 | 20.0 | 0.00 | 0.00 | 0.00 | 73 | 1015.1 |
| 20260903150556 | 70 | 229 | 10.0 | 23.0 | 0.00 | 0.00 | 0.00 | 72 | 1015.1 |
| 20260903150113 | 70 | 246 | 12.0 | 23.0 | 0.00 | 0.00 | 0.00 | 71 | 1015.0 |
| 20260903145556 | 69 | 239 | 10.0 | 19.0 | 0.00 | 0.00 | 0.00 | 72 | 1015.1 |
| 20260903145056 | 69 | 246 | 10.0 | 21.0 | 0.00 | 0.00 | 0.00 | 73 | 1015.1 |
| 20260903144604 | 69 | 258 | 10.0 | 21.0 | 0.00 | 0.00 | 0.00 | 73 | 1015.2 |
| 20260903144057 | 70 | 264 | 8.0 | 21.0 | 0.00 | 0.00 | 0.00 | 73 | 1015.1 |
| 20260903143556 | 69 | 265 | 11.0 | 21.0 | 0.00 | 0.00 | 0.00 | 74 | 1015.1 |
| 20260903143104 | 69 | 290 | 11.0 | 19.0 | 0.00 | 0.00 | 0.00 | 75 | 1015.2 |
| 20260903142556 | 69 | 247 | 10.0 | 16.0 | 0.00 | 0.00 | 0.00 | 75 | 1015.2 |
| 20260903142056 | 69 | 249 | 8.0 | 16.0 | 0.00 | 0.00 | 0.00 | 74 | 1015.3 |
| 20260903141604 | 69 | 229 | 9.0 | 18.0 | 0.00 | 0.00 | 0.00 | 75 | 1015.2 |
| 20260903141056 | 68 | 240 | 9.0 | 19.0 | 0.00 | 0.00 | 0.00 | 76 | 1015.2 |
| 20260903140556 | 68 | 252 | 9.0 | 23.0 | 0.00 | 0.00 | 0.00 | 77 | 1015.2 |
| 20260903140103 | 68 | 246 | 9.0 | 24.0 | 0.00 | 0.00 | 0.00 | 76 | 1015.2 |
| 20260903135555 | 68 | 211 | 13.0 | 24.0 | 0.00 | 0.00 | 0.00 | 76 | 1015.3 |
| 20260903135056 | 68 | 254 | 9.0 | 19.0 | 0.00 | 0.00 | 0.00 | 76 | 1015.3 |
| 20260903134603 | 68 | 263 | 10.0 | 22.0 | 0.00 | 0.00 | 0.00 | 76 | 1015.3 |
| 20260903134057 | 68 | 254 | 10.0 | 22.0 | 0.00 | 0.00 | 0.00 | 75 | 1015.3 |
| 20260903133600 | 68 | 261 | 11.0 | 23.0 | 0.00 | 0.00 | 0.00 | 75 | 1015.2 |
| 20260903133103 | 68 | 261 | 14.0 | 24.0 | 0.00 | 0.00 | 0.00 | 75 | 1015.2 |
| 20260903132557 | 68 | 227 | 10.0 | 24.0 | 0.00 | 0.00 | 0.00 | 75 | 1015.2 |
| 20260903132056 | 68 | 277 | 9.0 | 21.0 | 0.00 | 0.00 | 0.00 | 75 | 1015.2 |
| 20260903131605 | 68 | 234 | 12.0 | 21.0 | 0.00 | 0.00 | 0.00 | 74 | 1015.2 |
| 20260903131059 | 68 | 288 | 11.0 | 21.0 | 0.00 | 0.00 | 0.00 | 72 | 1015.2 |
| 20260903130558 | 68 | 276 | 10.0 | 21.0 | 0.00 | 0.00 | 0.00 | 72 | 1015.1 |
| 20260903130116 | 69 | 240 | 10.0 | 18.0 | 0.00 | 0.00 | 0.00 | 71 | 1015.1 |
| 20260903125557 | 69 | 266 | 11.0 | 17.0 | 0.00 | 0.00 | 0.00 | 70 | 1015.0 |
| 20260903125057 | 68 | 238 | 9.0 | 22.0 | 0.00 | 0.00 | 0.00 | 71 | 1015.2 |
| 20260903124618 | 68 | 246 | 10.0 | 22.0 | 0.00 | 0.00 | 0.00 | 72 | 1015.0 |
| 20260903124057 | 69 | 286 | 10.0 | 25.0 | 0.00 | 0.00 | 0.00 | 71 | 1015.1 |
| 20260903123557 | 69 | 250 | 12.0 | 25.0 | 0.00 | 0.00 | 0.00 | 69 | 1015.1 |
| 20260903123109 | 70 | 264 | 12.0 | 23.0 | 0.00 | 0.00 | 0.00 | 68 | 1015.0 |
| 20260903122600 | 70 | 238 | 9.0 | 24.0 | 0.00 | 0.00 | 0.00 | 67 | 1014.9 |
| 20260903122058 | 70 | 267 | 12.0 | 24.0 | 0.00 | 0.00 | 0.00 | 67 | 1014.9 |
| 20260903121605 | 71 | 252 | 10.0 | 23.0 | 0.00 | 0.00 | 0.00 | 66 | 1014.9 |
| 20260903121057 | 72 | 243 | 12.0 | 23.0 | 0.00 | 0.00 | 0.00 | 65 | 1014.8 |
| 20260903120559 | 72 | 273 | 10.0 | 20.0 | 0.00 | 0.00 | 0.00 | 65 | 1014.7 |
| 20260903120107 | 71 | 258 | 9.0 | 22.0 | 0.00 | 0.00 | 0.00 | 66 | 1014.6 |
| 20260903115557 | 71 | 277 | 11.0 | 22.0 | 0.00 | 0.00 | 0.00 | 66 | 1014.8 |
| 20260903115058 | 71 | 239 | 14.0 | 22.0 | 0.00 | 0.00 | 0.00 | 65 | 1015.0 |
| 20260903114608 | 71 | 249 | 13.0 | 21.0 | 0.00 | 0.00 | 0.00 | 65 | 1015.0 |
| 20260903114056 | 71 | 251 | 9.0 | 18.0 | 0.00 | 0.00 | 0.00 | 65 | 1014.9 |
| 20260903113556 | 71 | 255 | 10.0 | 18.0 | 0.00 | 0.00 | 0.00 | 64 | 1014.7 |
| 20260903113103 | 70 | 186 | 10.0 | 18.0 | 0.00 | 0.00 | 0.00 | 65 | 1014.9 |
| 20260903112600 | 70 | 241 | 9.0 | 18.0 | 0.00 | 0.00 | 0.00 | 64 | 1015.1 |
| 20260903112057 | 70 | 250 | 6.0 | 19.0 | 0.00 | 0.00 | 0.00 | 65 | 1015.0 |
| 20260903111625 | 69 | 293 | 12.0 | 19.0 | 0.00 | 0.00 | 0.00 | 66 | 1014.9 |
| 20260903111059 | 69 | 231 | 9.0 | 16.0 | 0.00 | 0.00 | 0.00 | 66 | 1015.0 |
| 20260903110557 | 69 | 243 | 9.0 | 20.0 | 0.00 | 0.00 | 0.00 | 65 | 1015.0 |
| 20260903110113 | 70 | 253 | 11.0 | 20.0 | 0.00 | 0.00 | 0.00 | 64 | 1015.1 |
| 20260903105558 | 70 | 236 | 11.0 | 16.0 | 0.00 | 0.00 | 0.00 | 63 | 1015.1 |
| 20260903105056 | 69 | 249 | 10.0 | 20.0 | 0.00 | 0.00 | 0.00 | 65 | 1015.1 |
| 20260903104632 | 69 | 267 | 9.0 | 20.0 | 0.00 | 0.00 | 0.00 | 66 | 1015.2 |
| 20260903104057 | 69 | 220 | 10.0 | 20.0 | 0.00 | 0.00 | 0.00 | 64 | 1015.3 |
| 20260903103559 | 69 | 244 | 9.0 | 20.0 | 0.00 | 0.00 | 0.00 | 64 | 1015.4 |
| 20260903103105 | 70 | 245 | 11.0 | 21.0 | 0.00 | 0.00 | 0.00 | 63 | 1015.5 |
| 20260903102559 | 70 | 240 | 8.0 | 25.0 | 0.00 | 0.00 | 0.00 | 63 | 1015.5 |
| 20260903102056 | 70 | 246 | 14.0 | 26.0 | 0.00 | 0.00 | 0.00 | 63 | 1015.3 |
| 20260903101601 | 71 | 231 | 13.0 | 26.0 | 0.00 | 0.00 | 0.00 | 62 | 1015.3 |
| 20260903101057 | 72 | 215 | 13.0 | 24.0 | 0.00 | 0.00 | 0.00 | 61 | 1015.2 |
| 20260903100557 | 69 | 273 | 12.0 | 21.0 | 0.00 | 0.00 | 0.00 | 64 | 1015.3 |
| 20260903100059 | 69 | 250 | 12.0 | 21.0 | 0.00 | 0.00 | 0.00 | 64 | 1015.4 |
| 20260903095557 | 69 | 263 | 9.0 | 18.0 | 0.00 | 0.00 | 0.00 | 64 | 1015.5 |
| 20260903095056 | 68 | 244 | 9.0 | 20.0 | 0.00 | 0.00 | 0.00 | 65 | 1015.5 |
| 20260903094610 | 68 | 235 | 8.0 | 20.0 | 0.00 | 0.00 | 0.00 | 66 | 1015.7 |
| 20260903094057 | 68 | 236 | 11.0 | 20.0 | 0.00 | 0.00 | 0.00 | 65 | 1015.6 |
| 20260903093558 | 68 | 252 | 9.0 | 19.0 | 0.00 | 0.00 | 0.00 | 65 | 1015.6 |
| 20260903093104 | 68 | 230 | 4.0 | 19.0 | 0.00 | 0.00 | 0.00 | 66 | 1015.6 |
| 20260903092557 | 67 | 235 | 6.0 | 15.0 | 0.00 | 0.00 | 0.00 | 67 | 1015.6 |
| 20260903092058 | 67 | 242 | 6.0 | 16.0 | 0.00 | 0.00 | 0.00 | 67 | 1015.7 |
| 20260903091612 | 67 | 236 | 6.0 | 20.0 | 0.00 | 0.00 | 0.00 | 67 | 1015.7 |
| 20260903091100 | 67 | 243 | 10.0 | 20.0 | 0.00 | 0.00 | 0.00 | 66 | 1015.7 |
| 20260903090558 | 67 | 230 | 10.0 | 20.0 | 0.00 | 0.00 | 0.00 | 66 | 1015.7 |
| 20260903090059 | 67 | 214 | 5.0 | 16.0 | 0.00 | 0.00 | 0.00 | 68 | 1015.7 |
| 20260903085557 | 67 | 222 | 7.0 | 16.0 | 0.00 | 0.00 | 0.00 | 69 | 1015.8 |
| 20260903085100 | 67 | 250 | 9.0 | 16.0 | 0.00 | 0.00 | 0.00 | 68 | 1015.7 |
| 20260903084558 | 66 | 257 | 7.0 | 15.0 | 0.00 | 0.00 | 0.00 | 68 | 1015.8 |
| 20260903084057 | 66 | 252 | 7.0 | 13.0 | 0.00 | 0.00 | 0.00 | 68 | 1015.8 |
| 20260903083558 | 66 | 235 | 7.0 | 19.0 | 0.00 | 0.00 | 0.00 | 68 | 1015.9 |
| 20260903083106 | 66 | 249 | 9.0 | 19.0 | 0.00 | 0.00 | 0.00 | 68 | 1016.0 |
| 20260903082557 | 66 | 227 | 8.0 | 15.0 | 0.00 | 0.00 | 0.00 | 68 | 1016.0 |
| 20260903082057 | 65 | 240 | 3.0 | 15.0 | 0.00 | 0.00 | 0.00 | 69 | 1016.0 |
| 20260903081602 | 65 | 213 | 6.0 | 15.0 | 0.00 | 0.00 | 0.00 | 69 | 1016.0 |
| 20260903081058 | 65 | 229 | 7.0 | 15.0 | 0.00 | 0.00 | 0.00 | 70 | 1016.0 |
| 20260903080559 | 65 | 232 | 5.0 | 15.0 | 0.00 | 0.00 | 0.00 | 70 | 1016.1 |
| 20260903075601 | 65 | 232 | 6.0 | 12.0 | 0.00 | 0.00 | 0.00 | 70 | 1016.3 |
| 20260903075058 | 65 | 169 | 6.0 | 14.0 | 0.00 | 0.00 | 0.00 | 70 | 1016.2 |
| 20260903074607 | 65 | 190 | 6.0 | 14.0 | 0.00 | 0.00 | 0.00 | 70 | 1016.3 |
| 20260903074057 | 64 | 218 | 5.0 | 14.0 | 0.00 | 0.00 | 0.00 | 70 | 1016.3 |
| 20260903073557 | 64 | 183 | 7.0 | 14.0 | 0.00 | 0.00 | 0.00 | 71 | 1016.3 |
| 20260903073112 | 64 | 208 | 6.0 | 13.0 | 0.00 | 0.00 | 0.00 | 70 | 1016.4 |
| 20260903072600 | 64 | 230 | 6.0 | 13.0 | 0.00 | 0.00 | 0.00 | 71 | 1016.3 |
| 20260903072057 | 64 | 237 | 6.0 | 13.0 | 0.00 | 0.00 | 0.00 | 71 | 1016.5 |
| 20260903071609 | 64 | 225 | 5.0 | 15.0 | 0.00 | 0.00 | 0.00 | 72 | 1016.5 |
| 20260903071056 | 64 | 234 | 5.0 | 15.0 | 0.00 | 0.00 | 0.00 | 71 | 1016.7 |
| 20260903070559 | 63 | 175 | 6.0 | 15.0 | 0.00 | 0.00 | 0.00 | 72 | 1016.8 |
| 20260903070109 | 63 | 229 | 3.0 | 11.0 | 0.00 | 0.00 | 0.00 | 72 | 1016.9 |
| 20260903065557 | 63 | 191 | 6.0 | 11.0 | 0.00 | 0.00 | 0.00 | 73 | 1016.8 |
| 20260903065057 | 63 | 225 | 3.0 | 8.0 | 0.00 | 0.00 | 0.00 | 74 | 1016.7 |
| 20260903064607 | 63 | 214 | 4.0 | 10.0 | 0.00 | 0.00 | 0.00 | 74 | 1016.6 |
| 20260903064056 | 62 | 211 | 4.0 | 10.0 | 0.00 | 0.00 | 0.00 | 74 | 1016.7 |
| 20260903063556 | 62 | 246 | 4.0 | 9.0 | 0.00 | 0.00 | 0.00 | 74 | 1016.7 |
| 20260903063105 | 62 | 221 | 4.0 | 9.0 | 0.00 | 0.00 | 0.00 | 76 | 1016.5 |
| 20260903062556 | 62 | 217 | 3.0 | 9.0 | 0.00 | 0.00 | 0.00 | 76 | 1016.5 |
| 20260903062058 | 61 | 230 | 3.0 | 9.0 | 0.00 | 0.00 | 0.00 | 77 | 1016.7 |
| 20260903061613 | 61 | 230 | 3.0 | 9.0 | 0.00 | 0.00 | 0.00 | 77 | 1016.7 |
| 20260903061057 | 61 | 211 | 2.0 | 7.0 | 0.00 | 0.00 | 0.00 | 78 | 1016.8 |
| 20260903060557 | 61 | 0 | 1.0 | 5.0 | 0.00 | 0.00 | 0.00 | 79 | 1016.6 |
| 20260903060109 | 61 | 0 | 1.0 | 5.0 | 0.00 | 0.00 | 0.00 | 78 | 1016.8 |
| 20260903055558 | 61 | 176 | 2.0 | 6.0 | 0.00 | 0.00 | 0.00 | 79 | 1016.8 |
| 20260903055057 | 61 | 175 | 2.0 | 6.0 | 0.00 | 0.00 | 0.00 | 79 | 1016.8 |
| 20260903054607 | 61 | 184 | 2.0 | 6.0 | 0.00 | 0.00 | 0.00 | 79 | 1017.0 |
| 20260903054057 | 61 | 0 | 1.0 | 7.0 | 0.00 | 0.00 | 0.00 | 79 | 1017.1 |
| 20260903053558 | 61 | 190 | 2.0 | 12.0 | 0.00 | 0.00 | 0.00 | 79 | 1017.3 |
| 20260903053114 | 61 | 241 | 4.0 | 13.0 | 0.00 | 0.00 | 0.00 | 78 | 1017.5 |
| 20260903052557 | 61 | 244 | 6.0 | 13.0 | 0.00 | 0.00 | 0.00 | 78 | 1017.6 |
| 20260903052059 | 60 | 240 | 5.0 | 11.0 | 0.00 | 0.00 | 0.00 | 77 | 1017.7 |
| 20260903051559 | 60 | 221 | 3.0 | 8.0 | 0.00 | 0.00 | 0.00 | 78 | 1017.6 |
| 20260903051058 | 60 | 208 | 3.0 | 7.0 | 0.00 | 0.00 | 0.00 | 79 | 1017.5 |
| 20260903050557 | 60 | 220 | 3.0 | 7.0 | 0.00 | 0.00 | 0.00 | 79 | 1017.5 |
| 20260903050107 | 60 | 221 | 3.0 | 6.0 | 0.00 | 0.00 | 0.00 | 80 | 1017.5 |
| 20260903045558 | 60 | 217 | 3.0 | 7.0 | 0.00 | 0.00 | 0.00 | 80 | 1017.6 |
| 20260903045057 | 60 | 219 | 2.0 | 7.0 | 0.00 | 0.00 | 0.00 | 80 | 1017.5 |
| 20260903044608 | 60 | 205 | 3.0 | 7.0 | 0.00 | 0.00 | 0.00 | 80 | 1017.5 |
| 20260903044058 | 60 | 211 | 3.0 | 7.0 | 0.00 | 0.00 | 0.00 | 80 | 1017.6 |
| 20260903043556 | 60 | 202 | 2.0 | 7.0 | 0.00 | 0.00 | 0.00 | 80 | 1017.6 |
| 20260903043103 | 59 | 201 | 2.0 | 7.0 | 0.00 | 0.00 | 0.00 | 81 | 1017.6 |
| 20260903042557 | 59 | 204 | 2.0 | 7.0 | 0.00 | 0.00 | 0.00 | 81 | 1017.6 |
| 20260903042057 | 59 | 217 | 2.0 | 7.0 | 0.00 | 0.00 | 0.00 | 81 | 1017.7 |
| 20260903041600 | 60 | 217 | 2.0 | 6.0 | 0.00 | 0.00 | 0.00 | 81 | 1017.6 |
| 20260903041057 | 60 | 217 | 3.0 | 6.0 | 0.00 | 0.00 | 0.00 | 81 | 1017.7 |
| 20260903040558 | 60 | 214 | 2.0 | 7.0 | 0.00 | 0.00 | 0.00 | 81 | 1017.7 |